Wetterdaten: Donnerstag, 17.09.2015
Datum Zeit Auen-Temp. Temp gefhlt Luftfeuchte Luftdruck Regen Wind Richtung Richtung Taupunkt Windben
17.09.2015 00:00 18,6 C 19,2 C 53 % 1004,3 hPa 0,0 mm 3,1 km/h (1 Bft) O 90 8,8 C 6,5 km/h (2 Bft)
17.09.2015 00:05 18,9 C 19,1 C 54 % 1004,3 hPa 0,0 mm 3,4 km/h (1 Bft) O-NO 67 9,4 C 6,2 km/h (2 Bft)
17.09.2015 00:10 18,8 C 19,2 C 54 % 1004,3 hPa 0,0 mm 4,1 km/h (1 Bft) SO 135 9,3 C 9,8 km/h (2 Bft)
17.09.2015 00:15 19,2 C 19,5 C 53 % 1004,4 hPa 0,0 mm 4,9 km/h (1 Bft) S-SO 157 9,4 C 4,7 km/h (1 Bft)
17.09.2015 00:20 18,9 C 19,3 C 53 % 1004,4 hPa 0,0 mm 3,4 km/h (1 Bft) O-NO 67 9,1 C 13,7 km/h (3 Bft)
17.09.2015 00:25 18,7 C 19,2 C 53 % 1004,4 hPa 0,0 mm 1,0 km/h (0 Bft) O-SO 112 8,9 C 0,0 km/h (0 Bft)
17.09.2015 00:30 18,9 C 18,9 C 53 % 1004,4 hPa 0,0 mm 1,3 km/h (1 Bft) O-NO 67 9,1 C 6,2 km/h (2 Bft)
17.09.2015 00:35 18,9 C 18,9 C 53 % 1004,5 hPa 0,0 mm 1,6 km/h (1 Bft) O-NO 67 9,1 C 2,8 km/h (1 Bft)
17.09.2015 00:40 18,8 C 18,8 C 53 % 1004,5 hPa 0,0 mm 1,8 km/h (1 Bft) O-NO 67 9,0 C 4,9 km/h (1 Bft)
17.09.2015 00:45 18,6 C 18,8 C 54 % 1004,5 hPa 0,0 mm 2,1 km/h (1 Bft) O-SO 112 9,1 C 3,6 km/h (1 Bft)
17.09.2015 00:50 18,9 C 18,8 C 53 % 1004,5 hPa 0,0 mm 2,1 km/h (1 Bft) O-SO 112 9,1 C 0,0 km/h (0 Bft)
17.09.2015 00:55 18,6 C 18,6 C 53 % 1004,3 hPa 0,0 mm 0,8 km/h (0 Bft) O 90 8,8 C 0,0 km/h (0 Bft)
17.09.2015 01:00 18,7 C 18,6 C 52 % 1004,3 hPa 0,0 mm 0,0 km/h (0 Bft) O 90 8,6 C 0,0 km/h (0 Bft)
17.09.2015 01:05 18,5 C 18,4 C 52 % 1004,3 hPa 0,0 mm 0,3 km/h (0 Bft) SO 135 8,5 C 0,0 km/h (0 Bft)
17.09.2015 01:10 18,5 C 18,4 C 53 % 1004,3 hPa 0,0 mm 0,5 km/h (0 Bft) O-NO 67 8,7 C 4,4 km/h (1 Bft)
17.09.2015 01:15 18,2 C 18,3 C 53 % 1004,4 hPa 0,0 mm 1,3 km/h (1 Bft) NW 315 8,5 C 0,0 km/h (0 Bft)
17.09.2015 01:20 18,7 C 18,6 C 53 % 1004,4 hPa 0,0 mm 1,8 km/h (1 Bft) O-SO 112 8,9 C 3,1 km/h (1 Bft)
17.09.2015 01:25 18,5 C 18,5 C 53 % 1004,4 hPa 0,0 mm 1,3 km/h (1 Bft) O-NO 67 8,7 C 0,0 km/h (0 Bft)
17.09.2015 01:30 18,2 C 18,3 C 53 % 1004,4 hPa 0,0 mm 0,8 km/h (0 Bft) W 270 8,5 C 0,0 km/h (0 Bft)
17.09.2015 01:35 18,8 C 18,6 C 52 % 1004,4 hPa 0,0 mm 0,0 km/h (0 Bft) O-SO 112 8,7 C 3,4 km/h (1 Bft)
17.09.2015 01:40 18,7 C 18,6 C 53 % 1004,4 hPa 0,0 mm 1,6 km/h (1 Bft) SO 135 8,9 C 0,0 km/h (0 Bft)
17.09.2015 01:45 18,9 C 18,8 C 52 % 1004,4 hPa 0,0 mm 1,6 km/h (1 Bft) O-NO 67 8,8 C 2,6 km/h (1 Bft)
17.09.2015 01:50 18,5 C 18,5 C 52 % 1004,4 hPa 0,0 mm 0,0 km/h (0 Bft) N-NO 22 8,5 C 0,0 km/h (0 Bft)
17.09.2015 01:55 18,6 C 18,6 C 52 % 1004,2 hPa 0,0 mm 0,5 km/h (0 Bft) NO 45 8,5 C 0,0 km/h (0 Bft)
17.09.2015 02:00 18,2 C 18,5 C 52 % 1004,2 hPa 0,0 mm 1,0 km/h (0 Bft) O-SO 112 8,2 C 2,8 km/h (1 Bft)
17.09.2015 02:05 18,2 C 18,5 C 52 % 1004,2 hPa 0,0 mm 0,5 km/h (0 Bft) O 90 8,2 C 0,0 km/h (0 Bft)
17.09.2015 02:10 18,1 C 18,3 C 52 % 1004,2 hPa 0,0 mm 0,5 km/h (0 Bft) N-NO 22 8,1 C 0,0 km/h (0 Bft)
17.09.2015 02:15 18,0 C 18,2 C 52 % 1004,4 hPa 0,0 mm 0,0 km/h (0 Bft) O-SO 112 8,0 C 0,0 km/h (0 Bft)
17.09.2015 02:20 17,9 C 18,1 C 53 % 1004,4 hPa 0,0 mm 0,3 km/h (0 Bft) SO 135 8,2 C 0,0 km/h (0 Bft)
17.09.2015 02:25 18,0 C 18,0 C 53 % 1004,4 hPa 0,0 mm 0,3 km/h (0 Bft) O-SO 112 8,3 C 0,0 km/h (0 Bft)
17.09.2015 02:30 17,9 C 17,9 C 53 % 1004,4 hPa 0,0 mm 0,3 km/h (0 Bft) O-NO 67 8,2 C 5,4 km/h (1 Bft)
17.09.2015 02:35 18,1 C 18,1 C 53 % 1004,5 hPa 0,0 mm 0,5 km/h (0 Bft) O 90 8,4 C 0,0 km/h (0 Bft)
17.09.2015 02:40 17,9 C 18,1 C 53 % 1004,5 hPa 0,0 mm 0,5 km/h (0 Bft) O 90 8,2 C 0,0 km/h (0 Bft)
17.09.2015 02:45 18,4 C 18,3 C 53 % 1004,5 hPa 0,0 mm 0,3 km/h (0 Bft) S 180 8,6 C 5,2 km/h (1 Bft)
17.09.2015 02:50 18,1 C 18,3 C 53 % 1004,5 hPa 0,0 mm 0,5 km/h (0 Bft) N-NO 22 8,4 C 0,0 km/h (0 Bft)
17.09.2015 02:55 17,8 C 18,3 C 53 % 1004,6 hPa 0,0 mm 0,5 km/h (0 Bft) S 180 8,1 C 2,8 km/h (1 Bft)
17.09.2015 03:00 17,7 C 18,0 C 53 % 1004,6 hPa 0,0 mm 0,3 km/h (0 Bft) S-SO 157 8,0 C 0,0 km/h (0 Bft)
17.09.2015 03:05 17,8 C 18,0 C 53 % 1004,6 hPa 0,0 mm 0,3 km/h (0 Bft) O 90 8,1 C 0,0 km/h (0 Bft)
17.09.2015 03:10 17,7 C 17,9 C 53 % 1004,6 hPa 0,0 mm 0,8 km/h (0 Bft) NW 315 8,0 C 0,0 km/h (0 Bft)
17.09.2015 03:15 17,8 C 17,9 C 53 % 1004,7 hPa 0,0 mm 0,3 km/h (0 Bft) NW 315 8,1 C 0,0 km/h (0 Bft)
17.09.2015 03:20 17,4 C 17,7 C 54 % 1004,7 hPa 0,0 mm 0,3 km/h (0 Bft) O 90 8,0 C 0,0 km/h (0 Bft)
17.09.2015 03:25 17,3 C 17,7 C 54 % 1004,7 hPa 0,0 mm 0,3 km/h (0 Bft) N-NO 22 7,9 C 0,0 km/h (0 Bft)
17.09.2015 03:30 17,3 C 17,6 C 55 % 1004,7 hPa 0,0 mm 0,0 km/h (0 Bft) O-NO 67 8,2 C 0,0 km/h (0 Bft)
17.09.2015 03:35 17,5 C 17,5 C 55 % 1004,7 hPa 0,0 mm 0,3 km/h (0 Bft) O-NO 67 8,4 C 0,0 km/h (0 Bft)
17.09.2015 03:40 17,4 C 17,5 C 55 % 1004,7 hPa 0,0 mm 0,5 km/h (0 Bft) N-NW 337 8,3 C 2,6 km/h (1 Bft)
17.09.2015 03:45 17,7 C 17,7 C 55 % 1004,7 hPa 0,0 mm 0,5 km/h (0 Bft) O-SO 112 8,5 C 0,0 km/h (0 Bft)
17.09.2015 03:50 17,3 C 17,5 C 54 % 1004,7 hPa 0,0 mm 0,5 km/h (0 Bft) W-NW 292 7,9 C 0,0 km/h (0 Bft)
17.09.2015 03:55 17,4 C 17,5 C 54 % 1005,0 hPa 0,0 mm 0,8 km/h (0 Bft) W-NW 292 8,0 C 5,4 km/h (1 Bft)
17.09.2015 04:00 17,5 C 17,6 C 54 % 1005,0 hPa 0,0 mm 1,3 km/h (1 Bft) W 270 8,1 C 5,2 km/h (1 Bft)
17.09.2015 04:05 18,0 C 18,0 C 53 % 1005,0 hPa 0,0 mm 2,6 km/h (1 Bft) S 180 8,3 C 3,4 km/h (1 Bft)
17.09.2015 04:10 17,9 C 18,2 C 53 % 1005,0 hPa 0,0 mm 3,4 km/h (1 Bft) N-NO 22 8,2 C 0,0 km/h (0 Bft)
17.09.2015 04:15 18,4 C 18,3 C 52 % 1005,6 hPa 0,0 mm 2,6 km/h (1 Bft) S 180 8,4 C 6,2 km/h (2 Bft)
17.09.2015 04:20 18,3 C 18,3 C 51 % 1005,6 hPa 0,0 mm 3,1 km/h (1 Bft) SW 225 8,0 C 2,6 km/h (1 Bft)
17.09.2015 04:25 18,1 C 18,1 C 52 % 1005,6 hPa 0,0 mm 3,9 km/h (1 Bft) W 270 8,1 C 0,0 km/h (0 Bft)
17.09.2015 04:30 17,8 C 17,8 C 52 % 1005,6 hPa 0,0 mm 3,4 km/h (1 Bft) S-SO 157 7,8 C 3,6 km/h (1 Bft)
17.09.2015 04:35 17,5 C 17,5 C 53 % 1005,8 hPa 0,0 mm 4,1 km/h (1 Bft) S 180 7,8 C 5,4 km/h (1 Bft)
17.09.2015 04:40 16,9 C 17,1 C 54 % 1005,8 hPa 0,0 mm 2,3 km/h (1 Bft) S-SO 157 7,5 C 0,0 km/h (0 Bft)
17.09.2015 04:45 17,4 C 17,2 C 55 % 1005,8 hPa 0,0 mm 2,1 km/h (1 Bft) SO 135 8,3 C 3,6 km/h (1 Bft)
17.09.2015 04:50 17,2 C 17,2 C 56 % 1005,8 hPa 0,0 mm 3,9 km/h (1 Bft) S 180 8,3 C 6,7 km/h (2 Bft)
17.09.2015 04:55 16,7 C 17,2 C 57 % 1005,9 hPa 0,0 mm 3,9 km/h (1 Bft) S-SO 157 8,1 C 2,6 km/h (1 Bft)
17.09.2015 05:00 16,1 C 16,5 C 58 % 1005,9 hPa 0,0 mm 2,1 km/h (1 Bft) S-SO 157 7,8 C 0,0 km/h (0 Bft)
17.09.2015 05:05 15,8 C 16,3 C 60 % 1005,9 hPa 0,0 mm 0,5 km/h (0 Bft) SO 135 8,1 C 0,0 km/h (0 Bft)
17.09.2015 05:10 14,9 C 15,5 C 61 % 1005,9 hPa 0,0 mm 0,3 km/h (0 Bft) O-SO 112 7,4 C 0,0 km/h (0 Bft)
17.09.2015 05:15 14,9 C 15,2 C 63 % 1005,8 hPa 0,0 mm 0,3 km/h (0 Bft) S-SO 157 7,9 C 3,1 km/h (1 Bft)
17.09.2015 05:20 15,1 C 15,2 C 63 % 1005,8 hPa 0,0 mm 0,3 km/h (0 Bft) S-SO 157 8,1 C 2,8 km/h (1 Bft)
17.09.2015 05:25 15,2 C 15,4 C 64 % 1005,8 hPa 0,0 mm 1,6 km/h (1 Bft) S-SO 157 8,4 C 3,4 km/h (1 Bft)
17.09.2015 05:30 14,7 C 15,1 C 63 % 1005,8 hPa 0,0 mm 1,6 km/h (1 Bft) NO 45 7,7 C 0,0 km/h (0 Bft)
17.09.2015 05:35 14,2 C 14,6 C 64 % 1005,6 hPa 0,0 mm 0,5 km/h (0 Bft) O-NO 67 7,5 C 0,0 km/h (0 Bft)
17.09.2015 05:40 13,7 C 14,1 C 64 % 1005,6 hPa 0,0 mm 0,3 km/h (0 Bft) W 270 7,0 C 0,0 km/h (0 Bft)
17.09.2015 05:45 13,3 C 13,6 C 65 % 1005,6 hPa 0,0 mm 0,3 km/h (0 Bft) N-NO 22 6,9 C 0,0 km/h (0 Bft)
17.09.2015 05:50 13,0 C 13,2 C 66 % 1005,6 hPa 0,0 mm 0,0 km/h (0 Bft) S 180 6,8 C 0,0 km/h (0 Bft)
17.09.2015 05:55 13,1 C 13,0 C 67 % 1005,4 hPa 0,0 mm 0,0 km/h (0 Bft) S 180 7,1 C 0,0 km/h (0 Bft)
17.09.2015 06:00 13,3 C 13,2 C 68 % 1005,4 hPa 0,0 mm 0,0 km/h (0 Bft) O-SO 112 7,5 C 0,0 km/h (0 Bft)
17.09.2015 06:05 13,1 C 13,2 C 68 % 1005,4 hPa 0,0 mm 0,0 km/h (0 Bft) W-SW 247 7,3 C 0,0 km/h (0 Bft)
17.09.2015 06:10 12,4 C 12,9 C 69 % 1005,4 hPa 0,0 mm 0,0 km/h (0 Bft) N-NO 22 6,9 C 0,0 km/h (0 Bft)
17.09.2015 06:15 12,7 C 12,6 C 72 % 1005,2 hPa 0,0 mm 0,0 km/h (0 Bft) O 90 7,8 C 0,0 km/h (0 Bft)
17.09.2015 06:20 12,5 C 12,4 C 72 % 1005,2 hPa 0,0 mm 0,0 km/h (0 Bft) O 90 7,6 C 0,0 km/h (0 Bft)
17.09.2015 06:25 12,2 C 12,3 C 72 % 1005,2 hPa 0,0 mm 0,0 km/h (0 Bft) O-SO 112 7,3 C 0,0 km/h (0 Bft)
17.09.2015 06:30 12,2 C 12,2 C 73 % 1005,2 hPa 0,0 mm 0,0 km/h (0 Bft) W-SW 247 7,5 C 0,0 km/h (0 Bft)
17.09.2015 06:35 12,8 C 12,8 C 72 % 1005,0 hPa 0,0 mm 0,0 km/h (0 Bft) O-SO 112 7,9 C 3,1 km/h (1 Bft)
17.09.2015 06:40 12,9 C 12,8 C 72 % 1005,0 hPa 0,0 mm 0,3 km/h (0 Bft) O-SO 112 8,0 C 0,0 km/h (0 Bft)
17.09.2015 06:45 12,4 C 12,6 C 74 % 1005,0 hPa 0,0 mm 0,3 km/h (0 Bft) NO 45 7,9 C 0,0 km/h (0 Bft)
17.09.2015 06:50 11,9 C 12,2 C 74 % 1005,0 hPa 0,0 mm 0,0 km/h (0 Bft) N 360 7,4 C 0,0 km/h (0 Bft)
17.09.2015 06:55 11,6 C 12,0 C 74 % 1004,8 hPa 0,0 mm 0,0 km/h (0 Bft) NW 315 7,1 C 0,0 km/h (0 Bft)
17.09.2015 07:00 11,6 C 11,6 C 75 % 1004,8 hPa 0,0 mm 0,0 km/h (0 Bft) N-NO 22 7,3 C 0,0 km/h (0 Bft)
17.09.2015 07:05 11,3 C 11,6 C 75 % 1004,8 hPa 0,0 mm 0,0 km/h (0 Bft) O-NO 67 7,0 C 0,0 km/h (0 Bft)
17.09.2015 07:10 11,2 C 11,3 C 76 % 1004,8 hPa 0,0 mm 0,8 km/h (0 Bft) W-NW 292 7,1 C 0,0 km/h (0 Bft)
17.09.2015 07:15 11,4 C 11,4 C 77 % 1004,8 hPa 0,0 mm 0,8 km/h (0 Bft) O-NO 67 7,5 C 0,0 km/h (0 Bft)
17.09.2015 07:20 11,4 C 11,4 C 78 % 1004,8 hPa 0,0 mm 0,3 km/h (0 Bft) O-SO 112 7,7 C 0,0 km/h (0 Bft)
17.09.2015 07:25 11,8 C 11,7 C 76 % 1004,8 hPa 0,0 mm 0,3 km/h (0 Bft) O-NO 67 7,7 C 0,0 km/h (0 Bft)
17.09.2015 07:30 11,9 C 11,8 C 78 % 1004,8 hPa 0,0 mm 0,0 km/h (0 Bft) S 180 8,2 C 0,0 km/h (0 Bft)
17.09.2015 07:35 11,7 C 12,1 C 77 % 1004,5 hPa 0,0 mm 0,0 km/h (0 Bft) O-SO 112 7,8 C 0,0 km/h (0 Bft)
17.09.2015 07:40 12,3 C 12,6 C 75 % 1004,5 hPa 0,0 mm 0,0 km/h (0 Bft) S-SO 157 8,0 C 0,0 km/h (0 Bft)
17.09.2015 07:45 12,8 C 13,6 C 74 % 1004,5 hPa 0,0 mm 0,3 km/h (0 Bft) O-SO 112 8,3 C 0,0 km/h (0 Bft)
17.09.2015 07:50 14,2 C 15,0 C 72 % 1004,5 hPa 0,0 mm 1,0 km/h (0 Bft) O-SO 112 9,2 C 2,8 km/h (1 Bft)
17.09.2015 07:55 14,7 C 15,3 C 70 % 1004,2 hPa 0,0 mm 1,6 km/h (1 Bft) SO 135 9,3 C 0,0 km/h (0 Bft)
17.09.2015 08:00 15,5 C 16,1 C 67 % 1004,2 hPa 0,0 mm 1,6 km/h (1 Bft) O-NO 67 9,4 C 0,0 km/h (0 Bft)
17.09.2015 08:05 15,6 C 16,5 C 66 % 1004,2 hPa 0,0 mm 1,3 km/h (1 Bft) O-NO 67 9,3 C 2,8 km/h (1 Bft)
17.09.2015 08:10 15,9 C 17,5 C 65 % 1004,2 hPa 0,0 mm 2,3 km/h (1 Bft) O-NO 67 9,3 C 0,0 km/h (0 Bft)
17.09.2015 08:15 16,0 C 19,2 C 63 % 1004,3 hPa 0,0 mm 2,3 km/h (1 Bft) NO 45 9,0 C 5,4 km/h (1 Bft)
17.09.2015 08:20 16,0 C 21,1 C 63 % 1004,3 hPa 0,0 mm 2,1 km/h (1 Bft) S-SO 157 9,0 C 4,4 km/h (1 Bft)
17.09.2015 08:25 16,4 C 22,1 C 62 % 1004,3 hPa 0,0 mm 2,3 km/h (1 Bft) O-SO 112 9,1 C 6,5 km/h (2 Bft)
17.09.2015 08:30 16,4 C 21,8 C 62 % 1004,3 hPa 0,0 mm 1,8 km/h (1 Bft) O-NO 67 9,1 C 0,0 km/h (0 Bft)
17.09.2015 08:35 16,6 C 21,3 C 61 % 1004,3 hPa 0,0 mm 2,8 km/h (1 Bft) O-NO 67 9,0 C 6,7 km/h (2 Bft)
17.09.2015 08:40 17,2 C 23,2 C 60 % 1004,3 hPa 0,0 mm 4,4 km/h (1 Bft) O 90 9,4 C 5,7 km/h (1 Bft)
17.09.2015 08:45 17,7 C 24,1 C 60 % 1004,3 hPa 0,0 mm 6,2 km/h (2 Bft) NO 45 9,8 C 3,4 km/h (1 Bft)
17.09.2015 08:50 18,2 C 25,2 C 59 % 1004,3 hPa 0,0 mm 5,2 km/h (1 Bft) O-NO 67 10,1 C 14,0 km/h (3 Bft)
17.09.2015 08:55 18,6 C 25,8 C 58 % 1004,2 hPa 0,0 mm 3,4 km/h (1 Bft) SO 135 10,2 C 0,0 km/h (0 Bft)
17.09.2015 09:00 19,4 C 26,4 C 57 % 1004,2 hPa 0,0 mm 3,9 km/h (1 Bft) SO 135 10,7 C 5,4 km/h (1 Bft)
17.09.2015 09:05 19,5 C 26,6 C 56 % 1004,2 hPa 0,0 mm 3,9 km/h (1 Bft) O-SO 112 10,5 C 0,0 km/h (0 Bft)
17.09.2015 09:10 19,5 C 26,8 C 56 % 1004,2 hPa 0,0 mm 3,6 km/h (1 Bft) O-NO 67 10,5 C 10,1 km/h (2 Bft)
17.09.2015 09:15 20,0 C 25,9 C 54 % 1004,5 hPa 0,0 mm 3,4 km/h (1 Bft) O-SO 112 10,4 C 2,6 km/h (1 Bft)
17.09.2015 09:20 20,2 C 26,7 C 53 % 1004,5 hPa 0,0 mm 3,9 km/h (1 Bft) SO 135 10,3 C 3,9 km/h (1 Bft)
17.09.2015 09:25 20,6 C 27,6 C 53 % 1004,5 hPa 0,0 mm 2,3 km/h (1 Bft) NO 45 10,7 C 0,0 km/h (0 Bft)
17.09.2015 09:30 21,3 C 28,6 C 52 % 1004,5 hPa 0,0 mm 1,6 km/h (1 Bft) SO 135 11,0 C 2,8 km/h (1 Bft)
17.09.2015 09:35 21,6 C 29,2 C 50 % 1004,6 hPa 0,0 mm 1,0 km/h (0 Bft) S 180 10,7 C 0,0 km/h (0 Bft)
17.09.2015 09:40 22,0 C 30,4 C 49 % 1004,6 hPa 0,0 mm 0,5 km/h (0 Bft) SO 135 10,8 C 2,8 km/h (1 Bft)
17.09.2015 09:45 22,4 C 30,9 C 48 % 1004,6 hPa 0,0 mm 0,5 km/h (0 Bft) NO 45 10,8 C 0,0 km/h (0 Bft)
17.09.2015 09:50 22,8 C 31,1 C 49 % 1004,6 hPa 0,0 mm 1,0 km/h (0 Bft) NO 45 11,5 C 3,4 km/h (1 Bft)
17.09.2015 09:55 23,1 C 31,2 C 46 % 1004,8 hPa 0,0 mm 1,8 km/h (1 Bft) SO 135 10,8 C 0,0 km/h (0 Bft)
17.09.2015 10:00 23,5 C 31,7 C 47 % 1004,8 hPa 0,0 mm 1,3 km/h (1 Bft) O-SO 112 11,5 C 2,6 km/h (1 Bft)
17.09.2015 10:05 23,9 C 31,8 C 47 % 1004,8 hPa 0,0 mm 0,8 km/h (0 Bft) O-NO 67 11,9 C 4,1 km/h (1 Bft)
17.09.2015 10:10 23,7 C 31,5 C 46 % 1004,8 hPa 0,0 mm 1,8 km/h (1 Bft) O 90 11,4 C 0,0 km/h (0 Bft)
17.09.2015 10:15 23,9 C 31,5 C 46 % 1004,6 hPa 0,0 mm 2,6 km/h (1 Bft) NO 45 11,6 C 9,1 km/h (2 Bft)
17.09.2015 10:20 24,1 C 30,3 C 44 % 1004,6 hPa 0,0 mm 6,2 km/h (2 Bft) O 90 11,1 C 15,8 km/h (3 Bft)
17.09.2015 10:25 24,3 C 29,8 C 44 % 1004,6 hPa 0,0 mm 6,2 km/h (2 Bft) NO 45 11,3 C 8,3 km/h (2 Bft)
17.09.2015 10:26 24,3 C 29,8 C 44 % 1004,6 hPa 0,0 mm 6,2 km/h (2 Bft) NO 45 11,3 C 8,3 km/h (2 Bft)
17.09.2015 10:30 24,3 C 29,8 C 44 % 1004,6 hPa 0,0 mm 6,2 km/h (2 Bft) NO 45 11,3 C 8,3 km/h (2 Bft)
17.09.2015 10:35 23,9 C 29,8 C 45 % 1004,6 hPa 0,0 mm 5,7 km/h (1 Bft) O 90 11,2 C 8,8 km/h (2 Bft)
17.09.2015 10:40 24,3 C 29,3 C 45 % 1004,6 hPa 0,0 mm 7,8 km/h (2 Bft) O-SO 112 11,6 C 17,1 km/h (3 Bft)
17.09.2015 10:45 24,3 C 29,3 C 46 % 1004,6 hPa 0,0 mm 8,0 km/h (2 Bft) O-NO 67 11,9 C 9,3 km/h (2 Bft)
17.09.2015 10:50 24,7 C 29,9 C 45 % 1004,6 hPa 0,0 mm 6,5 km/h (2 Bft) N-NO 22 12,0 C 6,5 km/h (2 Bft)
17.09.2015 10:55 24,9 C 30,2 C 43 % 1004,6 hPa 0,0 mm 5,7 km/h (1 Bft) O-NO 67 11,4 C 5,7 km/h (1 Bft)
17.09.2015 11:00 25,2 C 30,4 C 45 % 1004,6 hPa 0,0 mm 5,7 km/h (1 Bft) O-NO 67 12,4 C 7,3 km/h (2 Bft)
17.09.2015 11:05 25,0 C 30,4 C 45 % 1004,6 hPa 0,0 mm 5,7 km/h (1 Bft) O 90 12,2 C 6,2 km/h (2 Bft)
17.09.2015 11:10 25,8 C 30,9 C 46 % 1004,6 hPa 0,0 mm 3,6 km/h (1 Bft) O-NO 67 13,3 C 3,1 km/h (1 Bft)
17.09.2015 11:15 25,2 C 31,0 C 47 % 1004,9 hPa 0,0 mm 3,6 km/h (1 Bft) O-NO 67 13,1 C 12,2 km/h (2 Bft)
17.09.2015 11:20 25,9 C 31,0 C 47 % 1004,9 hPa 0,0 mm 3,4 km/h (1 Bft) N-NO 22 13,7 C 10,4 km/h (2 Bft)
17.09.2015 11:25 26,2 C 31,4 C 44 % 1004,9 hPa 0,0 mm 3,6 km/h (1 Bft) O-NO 67 13,0 C 7,0 km/h (2 Bft)
17.09.2015 11:30 26,0 C 30,8 C 44 % 1004,9 hPa 0,0 mm 4,1 km/h (1 Bft) O-NO 67 12,8 C 8,3 km/h (2 Bft)
17.09.2015 11:35 26,0 C 31,2 C 46 % 1004,7 hPa 0,0 mm 3,6 km/h (1 Bft) O-NO 67 13,5 C 4,7 km/h (1 Bft)
17.09.2015 11:40 26,2 C 31,7 C 45 % 1004,7 hPa 0,0 mm 2,8 km/h (1 Bft) O 90 13,3 C 4,9 km/h (1 Bft)
17.09.2015 11:45 26,5 C 32,1 C 44 % 1004,7 hPa 0,0 mm 3,9 km/h (1 Bft) W 270 13,2 C 4,1 km/h (1 Bft)
17.09.2015 11:50 27,2 C 32,2 C 41 % 1004,7 hPa 0,0 mm 7,0 km/h (2 Bft) NO 45 12,8 C 10,1 km/h (2 Bft)
17.09.2015 11:55 27,3 C 32,4 C 41 % 1004,6 hPa 0,0 mm 6,7 km/h (2 Bft) N-NW 337 12,9 C 7,3 km/h (2 Bft)
17.09.2015 12:00 27,6 C 32,7 C 41 % 1004,6 hPa 0,0 mm 7,0 km/h (2 Bft) W-NW 292 13,1 C 14,0 km/h (3 Bft)
17.09.2015 12:05 26,9 C 31,7 C 42 % 1004,6 hPa 0,0 mm 9,8 km/h (2 Bft) NW 315 12,9 C 11,4 km/h (2 Bft)
17.09.2015 12:10 25,9 C 29,8 C 47 % 1004,6 hPa 0,0 mm 12,2 km/h (2 Bft) W 270 13,7 C 25,4 km/h (4 Bft)
17.09.2015 12:15 25,7 C 29,2 C 49 % 1005,2 hPa 0,0 mm 12,9 km/h (3 Bft) W 270 14,2 C 15,3 km/h (3 Bft)
17.09.2015 12:20 24,8 C 27,7 C 52 % 1005,2 hPa 0,0 mm 12,7 km/h (3 Bft) W-SW 247 14,3 C 26,4 km/h (4 Bft)
17.09.2015 12:25 24,7 C 27,5 C 54 % 1005,2 hPa 0,0 mm 10,4 km/h (2 Bft) S 180 14,8 C 21,0 km/h (4 Bft)
17.09.2015 12:30 24,6 C 28,0 C 54 % 1005,2 hPa 0,0 mm 10,4 km/h (2 Bft) W 270 14,7 C 18,6 km/h (3 Bft)
17.09.2015 12:35 24,4 C 27,8 C 56 % 1005,3 hPa 0,0 mm 14,2 km/h (3 Bft) W 270 15,0 C 15,8 km/h (3 Bft)
17.09.2015 12:40 23,1 C 26,0 C 58 % 1005,3 hPa 0,0 mm 17,6 km/h (3 Bft) W-NW 292 14,4 C 38,3 km/h (5 Bft)
17.09.2015 12:45 22,9 C 25,2 C 59 % 1005,3 hPa 0,0 mm 19,7 km/h (3 Bft) W-SW 247 14,5 C 28,0 km/h (4 Bft)
17.09.2015 12:50 22,1 C 24,3 C 59 % 1005,3 hPa 0,0 mm 20,2 km/h (4 Bft) W 270 13,7 C 42,2 km/h (6 Bft)
17.09.2015 12:55 22,4 C 24,6 C 61 % 1006,1 hPa 0,0 mm 19,7 km/h (3 Bft) NW 315 14,5 C 28,2 km/h (4 Bft)
17.09.2015 13:00 22,5 C 25,4 C 62 % 1006,1 hPa 0,0 mm 17,1 km/h (3 Bft) NW 315 14,8 C 16,6 km/h (3 Bft)
17.09.2015 13:05 22,7 C 25,3 C 61 % 1006,1 hPa 0,0 mm 16,3 km/h (3 Bft) SW 225 14,8 C 23,6 km/h (4 Bft)
17.09.2015 13:10 22,6 C 25,0 C 61 % 1006,1 hPa 0,0 mm 17,3 km/h (3 Bft) NW 315 14,7 C 25,9 km/h (4 Bft)
17.09.2015 13:15 22,5 C 25,1 C 61 % 1006,7 hPa 0,0 mm 16,1 km/h (3 Bft) W-NW 292 14,6 C 10,9 km/h (2 Bft)
17.09.2015 13:20 21,3 C 23,4 C 62 % 1006,7 hPa 0,0 mm 17,1 km/h (3 Bft) O-NO 67 13,7 C 23,3 km/h (4 Bft)
17.09.2015 13:25 21,1 C 22,7 C 63 % 1006,7 hPa 0,0 mm 16,6 km/h (3 Bft) W 270 13,8 C 24,1 km/h (4 Bft)
17.09.2015 13:30 21,0 C 22,7 C 63 % 1006,7 hPa 0,0 mm 18,1 km/h (3 Bft) W-SW 247 13,7 C 48,9 km/h (6 Bft)
17.09.2015 13:35 20,6 C 22,5 C 63 % 1006,9 hPa 0,0 mm 20,5 km/h (4 Bft) NW 315 13,3 C 25,4 km/h (4 Bft)
17.09.2015 13:40 21,1 C 23,2 C 63 % 1006,9 hPa 0,0 mm 18,1 km/h (3 Bft) W 270 13,8 C 21,5 km/h (4 Bft)
17.09.2015 13:45 21,2 C 23,8 C 62 % 1006,9 hPa 0,0 mm 17,1 km/h (3 Bft) W 270 13,6 C 26,4 km/h (4 Bft)
17.09.2015 13:50 20,9 C 23,3 C 62 % 1006,9 hPa 0,0 mm 15,3 km/h (3 Bft) W-NW 292 13,3 C 22,8 km/h (4 Bft)
17.09.2015 13:55 20,7 C 23,3 C 62 % 1006,9 hPa 0,0 mm 15,0 km/h (3 Bft) SW 225 13,2 C 7,3 km/h (2 Bft)
17.09.2015 14:00 20,2 C 22,5 C 63 % 1006,9 hPa 0,0 mm 12,9 km/h (3 Bft) W 270 12,9 C 10,4 km/h (2 Bft)
17.09.2015 14:05 19,7 C 21,7 C 64 % 1006,9 hPa 0,0 mm 10,6 km/h (2 Bft) W 270 12,7 C 16,6 km/h (3 Bft)
17.09.2015 14:10 19,3 C 20,6 C 66 % 1006,9 hPa 0,0 mm 11,9 km/h (2 Bft) SW 225 12,8 C 18,9 km/h (3 Bft)
17.09.2015 14:15 19,2 C 20,3 C 67 % 1007,4 hPa 0,0 mm 12,9 km/h (3 Bft) W 270 12,9 C 7,5 km/h (2 Bft)
17.09.2015 14:20 19,3 C 20,4 C 67 % 1007,4 hPa 0,0 mm 12,7 km/h (3 Bft) NW 315 13,0 C 29,5 km/h (5 Bft)
17.09.2015 14:25 18,6 C 19,9 C 67 % 1007,4 hPa 0,0 mm 14,8 km/h (3 Bft) NW 315 12,3 C 31,6 km/h (5 Bft)
17.09.2015 14:30 17,1 C 18,6 C 69 % 1007,4 hPa 0,0 mm 19,2 km/h (3 Bft) W-NW 292 11,4 C 17,1 km/h (3 Bft)
17.09.2015 14:35 16,9 C 17,4 C 70 % 1008,3 hPa 0,0 mm 16,3 km/h (3 Bft) W-SW 247 11,4 C 4,9 km/h (1 Bft)
17.09.2015 14:40 16,6 C 16,7 C 70 % 1008,3 hPa 0,0 mm 11,9 km/h (2 Bft) W-NW 292 11,1 C 18,1 km/h (3 Bft)
17.09.2015 14:45 16,4 C 16,5 C 70 % 1008,3 hPa 0,0 mm 12,4 km/h (3 Bft) W 270 10,9 C 15,5 km/h (3 Bft)
17.09.2015 14:50 16,1 C 16,1 C 70 % 1008,3 hPa 0,0 mm 12,2 km/h (2 Bft) SW 225 10,6 C 20,5 km/h (4 Bft)
17.09.2015 14:55 15,8 C 15,9 C 71 % 1009,1 hPa 0,0 mm 10,1 km/h (2 Bft) W 270 10,6 C 9,3 km/h (2 Bft)
17.09.2015 15:00 15,4 C 15,6 C 72 % 1009,1 hPa 0,0 mm 10,4 km/h (2 Bft) W-SW 247 10,4 C 15,5 km/h (3 Bft)
17.09.2015 15:05 15,2 C 15,3 C 72 % 1009,1 hPa 0,0 mm 10,6 km/h (2 Bft) SW 225 10,2 C 7,8 km/h (2 Bft)
17.09.2015 15:10 14,9 C 15,0 C 72 % 1009,1 hPa 0,0 mm 13,5 km/h (3 Bft) SW 225 9,9 C 16,3 km/h (3 Bft)
17.09.2015 15:15 14,8 C 14,7 C 73 % 1009,8 hPa 0,0 mm 14,5 km/h (3 Bft) NW 315 10,0 C 26,4 km/h (4 Bft)
17.09.2015 15:20 14,5 C 14,3 C 75 % 1009,8 hPa 0,0 mm 12,2 km/h (2 Bft) NW 315 10,1 C 14,2 km/h (3 Bft)
17.09.2015 15:25 14,0 C 13,8 C 77 % 1009,8 hPa 0,0 mm 12,4 km/h (3 Bft) W 270 10,0 C 17,6 km/h (3 Bft)
17.09.2015 15:30 13,5 C 13,2 C 79 % 1009,8 hPa 0,0 mm 12,4 km/h (3 Bft) W-SW 247 9,9 C 9,1 km/h (2 Bft)
17.09.2015 15:35 13,4 C 13,1 C 79 % 1010,2 hPa 0,0 mm 9,6 km/h (2 Bft) NW 315 9,8 C 23,8 km/h (4 Bft)
17.09.2015 15:40 13,2 C 12,9 C 80 % 1010,2 hPa 0,0 mm 7,3 km/h (2 Bft) W 270 9,8 C 11,9 km/h (2 Bft)
17.09.2015 15:45 13,1 C 12,8 C 80 % 1010,2 hPa 0,0 mm 7,5 km/h (2 Bft) W-NW 292 9,7 C 13,5 km/h (3 Bft)
17.09.2015 15:50 12,9 C 12,6 C 82 % 1010,2 hPa 0,0 mm 6,7 km/h (2 Bft) NW 315 9,9 C 7,0 km/h (2 Bft)
17.09.2015 15:55 12,7 C 12,5 C 83 % 1011,1 hPa 0,0 mm 6,5 km/h (2 Bft) N-NO 22 9,9 C 4,1 km/h (1 Bft)
17.09.2015 16:00 12,5 C 12,3 C 83 % 1011,1 hPa 0,0 mm 6,5 km/h (2 Bft) SW 225 9,7 C 4,7 km/h (1 Bft)
17.09.2015 16:05 12,5 C 12,2 C 83 % 1011,1 hPa 0,0 mm 6,5 km/h (2 Bft) W 270 9,7 C 10,4 km/h (2 Bft)
17.09.2015 16:10 12,3 C 12,1 C 84 % 1011,1 hPa 0,0 mm 7,3 km/h (2 Bft) N-NO 22 9,7 C 13,7 km/h (3 Bft)
17.09.2015 16:15 12,1 C 11,9 C 84 % 1012,0 hPa 0,0 mm 8,0 km/h (2 Bft) S 180 9,5 C 7,0 km/h (2 Bft)
17.09.2015 16:20 12,0 C 11,6 C 84 % 1012,0 hPa 0,0 mm 9,6 km/h (2 Bft) S 180 9,4 C 6,7 km/h (2 Bft)
17.09.2015 16:25 11,9 C 11,6 C 84 % 1012,0 hPa 0,0 mm 9,1 km/h (2 Bft) W-SW 247 9,3 C 7,0 km/h (2 Bft)
17.09.2015 16:27 11,7 C 11,5 C 84 % 1012,0 hPa 0,0 mm 7,5 km/h (2 Bft) SW 225 9,1 C 4,1 km/h (1 Bft)
17.09.2015 16:30 11,7 C 11,5 C 84 % 1012,0 hPa 0,0 mm 7,5 km/h (2 Bft) SW 225 9,1 C 4,1 km/h (1 Bft)
17.09.2015 16:35 11,7 C 11,5 C 85 % 1012,7 hPa 0,0 mm 6,7 km/h (2 Bft) W 270 9,3 C 8,5 km/h (2 Bft)
17.09.2015 16:40 11,7 C 11,5 C 85 % 1012,7 hPa 0,7 mm 7,5 km/h (2 Bft) N-NO 22 9,3 C 20,5 km/h (4 Bft)
17.09.2015 16:45 11,5 C 11,3 C 86 % 1012,7 hPa 0,0 mm 9,3 km/h (2 Bft) NW 315 9,2 C 13,7 km/h (3 Bft)
17.09.2015 16:50 11,5 C 11,3 C 86 % 1012,7 hPa 0,0 mm 8,5 km/h (2 Bft) W 270 9,2 C 6,5 km/h (2 Bft)
17.09.2015 16:55 11,5 C 11,4 C 81 % 1013,1 hPa 0,0 mm 7,3 km/h (2 Bft) SW 225 8,4 C 3,6 km/h (1 Bft)
17.09.2015 17:00 11,5 C 11,2 C 86 % 1013,1 hPa 0,0 mm 9,3 km/h (2 Bft) W-SW 247 9,2 C 14,8 km/h (3 Bft)
17.09.2015 17:05 11,2 C 10,9 C 86 % 1013,1 hPa 0,0 mm 12,4 km/h (3 Bft) W-NW 292 8,9 C 29,3 km/h (5 Bft)
17.09.2015 17:10 11,1 C 10,8 C 86 % 1013,1 hPa 0,0 mm 12,4 km/h (3 Bft) N-NW 337 8,8 C 15,3 km/h (3 Bft)
17.09.2015 17:15 11,1 C 10,8 C 86 % 1013,8 hPa 0,0 mm 9,8 km/h (2 Bft) S 180 8,8 C 3,4 km/h (1 Bft)
17.09.2015 17:20 11,0 C 10,8 C 85 % 1013,8 hPa 0,0 mm 6,7 km/h (2 Bft) W-NW 292 8,6 C 7,5 km/h (2 Bft)
17.09.2015 17:25 11,0 C 10,8 C 85 % 1013,8 hPa 0,0 mm 6,5 km/h (2 Bft) W-SW 247 8,6 C 4,4 km/h (1 Bft)
17.09.2015 17:30 10,8 C 10,7 C 85 % 1013,8 hPa 0,0 mm 7,0 km/h (2 Bft) W 270 8,4 C 16,3 km/h (3 Bft)
17.09.2015 17:35 10,8 C 10,6 C 85 % 1013,2 hPa 0,0 mm 5,4 km/h (1 Bft) S 180 8,4 C 6,0 km/h (2 Bft)
17.09.2015 17:40 10,8 C 10,6 C 85 % 1013,2 hPa 0,0 mm 6,5 km/h (2 Bft) W 270 8,4 C 11,7 km/h (2 Bft)
17.09.2015 17:45 10,8 C 10,6 C 85 % 1013,2 hPa 0,0 mm 7,0 km/h (2 Bft) O-NO 67 8,4 C 7,0 km/h (2 Bft)
17.09.2015 17:50 10,7 C 10,5 C 85 % 1013,2 hPa 0,7 mm 6,5 km/h (2 Bft) SW 225 8,3 C 3,9 km/h (1 Bft)
17.09.2015 17:55 10,6 C 10,4 C 85 % 1014,3 hPa 0,0 mm 6,2 km/h (2 Bft) NO 45 8,2 C 7,5 km/h (2 Bft)
17.09.2015 18:00 10,4 C 10,2 C 85 % 1014,3 hPa 0,0 mm 7,5 km/h (2 Bft) NW 315 8,0 C 3,4 km/h (1 Bft)
17.09.2015 18:05 10,4 C 10,2 C 85 % 1014,3 hPa 0,0 mm 7,0 km/h (2 Bft) NW 315 8,0 C 11,9 km/h (2 Bft)
17.09.2015 18:10 10,3 C 10,1 C 85 % 1014,3 hPa 0,0 mm 4,9 km/h (1 Bft) W-SW 247 7,9 C 7,0 km/h (2 Bft)
17.09.2015 18:15 10,3 C 10,1 C 85 % 1014,3 hPa 0,0 mm 4,9 km/h (1 Bft) SO 135 7,9 C 2,8 km/h (1 Bft)
17.09.2015 18:20 10,2 C 10,0 C 85 % 1014,3 hPa 0,0 mm 4,1 km/h (1 Bft) S-SW 202 7,8 C 4,7 km/h (1 Bft)
17.09.2015 18:25 10,1 C 9,9 C 85 % 1014,3 hPa 0,0 mm 4,7 km/h (1 Bft) N-NO 22 7,7 C 10,6 km/h (2 Bft)
17.09.2015 18:30 10,1 C 9,9 C 85 % 1014,3 hPa 0,7 mm 4,7 km/h (1 Bft) O-SO 112 7,7 C 2,6 km/h (1 Bft)
17.09.2015 18:35 10,1 C 9,9 C 85 % 1014,3 hPa 0,0 mm 3,9 km/h (1 Bft) S-SW 202 7,7 C 6,2 km/h (2 Bft)
17.09.2015 18:40 10,0 C 9,8 C 85 % 1014,3 hPa 0,0 mm 2,6 km/h (1 Bft) S 180 7,6 C 0,0 km/h (0 Bft)
17.09.2015 18:45 10,0 C 9,8 C 85 % 1014,3 hPa 0,0 mm 3,1 km/h (1 Bft) W 270 7,6 C 8,3 km/h (2 Bft)
17.09.2015 18:50 10,0 C 9,8 C 85 % 1014,3 hPa 0,0 mm 3,4 km/h (1 Bft) W 270 7,6 C 4,1 km/h (1 Bft)
17.09.2015 18:55 9,9 C 9,7 C 85 % 1014,4 hPa 0,0 mm 3,6 km/h (1 Bft) W-SW 247 7,5 C 6,2 km/h (2 Bft)
17.09.2015 19:00 9,8 C 9,6 C 85 % 1014,4 hPa 0,0 mm 3,9 km/h (1 Bft) SW 225 7,4 C 9,3 km/h (2 Bft)
17.09.2015 19:05 9,8 C 9,5 C 85 % 1014,4 hPa 0,0 mm 4,7 km/h (1 Bft) W-SW 247 7,4 C 6,7 km/h (2 Bft)
17.09.2015 19:10 9,9 C 9,6 C 85 % 1014,4 hPa 0,0 mm 4,1 km/h (1 Bft) SW 225 7,5 C 4,7 km/h (1 Bft)
17.09.2015 19:15 9,9 C 9,6 C 85 % 1014,2 hPa 0,0 mm 3,6 km/h (1 Bft) SW 225 7,5 C 4,1 km/h (1 Bft)
17.09.2015 19:20 9,9 C 9,6 C 84 % 1014,2 hPa 0,0 mm 6,2 km/h (2 Bft) SW 225 7,3 C 16,3 km/h (3 Bft)
17.09.2015 19:25 9,8 C 9,5 C 84 % 1014,2 hPa 0,0 mm 6,5 km/h (2 Bft) W-NW 292 7,2 C 10,4 km/h (2 Bft)
17.09.2015 19:30 9,9 C 9,6 C 84 % 1014,2 hPa 0,0 mm 5,2 km/h (1 Bft) W-NW 292 7,3 C 8,5 km/h (2 Bft)
17.09.2015 19:35 9,9 C 9,6 C 84 % 1014,2 hPa 0,0 mm 6,0 km/h (2 Bft) W 270 7,3 C 12,9 km/h (3 Bft)
17.09.2015 19:40 9,9 C 9,6 C 84 % 1014,2 hPa 0,0 mm 4,9 km/h (1 Bft) S-SO 157 7,3 C 0,0 km/h (0 Bft)
17.09.2015 19:45 9,8 C 9,5 C 84 % 1014,2 hPa 0,0 mm 3,1 km/h (1 Bft) W-SW 247 7,2 C 3,4 km/h (1 Bft)
17.09.2015 19:50 9,7 C 9,4 C 85 % 1014,2 hPa 0,0 mm 0,5 km/h (0 Bft) SO 135 7,3 C 0,0 km/h (0 Bft)
17.09.2015 19:55 9,6 C 9,3 C 85 % 1014,1 hPa 0,0 mm 0,5 km/h (0 Bft) SO 135 7,2 C 0,0 km/h (0 Bft)
17.09.2015 20:00 9,5 C 9,3 C 86 % 1014,1 hPa 0,0 mm 0,0 km/h (0 Bft) O-SO 112 7,3 C 0,0 km/h (0 Bft)
17.09.2015 20:05 9,4 C 9,2 C 86 % 1014,1 hPa 0,0 mm 0,0 km/h (0 Bft) O-SO 112 7,2 C 0,0 km/h (0 Bft)
17.09.2015 20:10 9,1 C 8,9 C 86 % 1014,1 hPa 0,0 mm 0,0 km/h (0 Bft) O-NO 67 6,9 C 0,0 km/h (0 Bft)
17.09.2015 20:15 9,0 C 8,8 C 86 % 1014,1 hPa 0,0 mm 0,0 km/h (0 Bft) O-NO 67 6,8 C 0,0 km/h (0 Bft)
17.09.2015 20:20 8,8 C 8,6 C 86 % 1014,1 hPa 0,0 mm 0,0 km/h (0 Bft) NO 45 6,6 C 0,0 km/h (0 Bft)
17.09.2015 20:25 8,8 C 8,6 C 86 % 1014,1 hPa 0,0 mm 0,3 km/h (0 Bft) NO 45 6,6 C 0,0 km/h (0 Bft)
17.09.2015 20:30 8,9 C 8,7 C 87 % 1014,1 hPa 0,0 mm 0,3 km/h (0 Bft) O-NO 67 6,9 C 0,0 km/h (0 Bft)
17.09.2015 20:35 8,9 C 8,8 C 83 % 1014,3 hPa 0,0 mm 0,8 km/h (0 Bft) O-NO 67 6,2 C 0,0 km/h (0 Bft)
17.09.2015 20:40 9,1 C 9,0 C 83 % 1014,3 hPa 0,0 mm 1,8 km/h (1 Bft) W 270 6,4 C 2,6 km/h (1 Bft)
17.09.2015 20:45 9,2 C 9,0 C 83 % 1014,3 hPa 0,0 mm 1,0 km/h (0 Bft) NO 45 6,5 C 0,0 km/h (0 Bft)
17.09.2015 20:50 9,1 C 8,9 C 87 % 1014,3 hPa 0,0 mm 0,3 km/h (0 Bft) NO 45 7,1 C 0,0 km/h (0 Bft)
17.09.2015 20:55 9,1 C 8,9 C 87 % 1014,6 hPa 0,0 mm 0,0 km/h (0 Bft) NO 45 7,1 C 0,0 km/h (0 Bft)
17.09.2015 21:00 9,0 C 8,8 C 87 % 1014,6 hPa 0,0 mm 0,0 km/h (0 Bft) O-SO 112 7,0 C 0,0 km/h (0 Bft)
17.09.2015 21:05 9,1 C 8,9 C 87 % 1014,6 hPa 0,0 mm 0,0 km/h (0 Bft) O 90 7,1 C 0,0 km/h (0 Bft)
17.09.2015 21:10 9,0 C 8,9 C 88 % 1014,6 hPa 0,0 mm 0,5 km/h (0 Bft) O-NO 67 7,1 C 0,0 km/h (0 Bft)
17.09.2015 21:15 9,1 C 8,9 C 88 % 1014,6 hPa 0,0 mm 0,5 km/h (0 Bft) O 90 7,2 C 0,0 km/h (0 Bft)
17.09.2015 21:20 9,2 C 9,0 C 88 % 1014,6 hPa 0,0 mm 0,5 km/h (0 Bft) O-NO 67 7,3 C 0,0 km/h (0 Bft)
17.09.2015 21:25 9,2 C 9,1 C 84 % 1014,6 hPa 0,0 mm 1,0 km/h (0 Bft) NW 315 6,6 C 6,0 km/h (2 Bft)
17.09.2015 21:30 9,5 C 9,3 C 84 % 1014,6 hPa 0,0 mm 1,6 km/h (1 Bft) O 90 6,9 C 3,4 km/h (1 Bft)
17.09.2015 21:35 9,6 C 9,3 C 88 % 1014,9 hPa 0,0 mm 1,6 km/h (1 Bft) O-SO 112 7,7 C 0,0 km/h (0 Bft)
17.09.2015 21:40 9,6 C 9,5 C 84 % 1014,9 hPa 0,0 mm 0,3 km/h (0 Bft) O-NO 67 7,0 C 0,0 km/h (0 Bft)
17.09.2015 21:45 9,7 C 9,5 C 84 % 1014,9 hPa 0,0 mm 0,3 km/h (0 Bft) W 270 7,1 C 2,6 km/h (1 Bft)
17.09.2015 21:50 9,8 C 9,6 C 84 % 1014,9 hPa 0,0 mm 0,3 km/h (0 Bft) O 90 7,2 C 0,0 km/h (0 Bft)
17.09.2015 21:55 9,8 C 9,6 C 84 % 1014,9 hPa 0,0 mm 0,0 km/h (0 Bft) O 90 7,2 C 0,0 km/h (0 Bft)
17.09.2015 22:00 9,9 C 9,8 C 84 % 1014,9 hPa 0,0 mm 0,5 km/h (0 Bft) S 180 7,3 C 2,8 km/h (1 Bft)
17.09.2015 22:05 10,0 C 9,8 C 83 % 1014,9 hPa 0,0 mm 0,8 km/h (0 Bft) O-SO 112 7,2 C 0,0 km/h (0 Bft)
17.09.2015 22:10 10,0 C 9,8 C 87 % 1014,9 hPa 0,0 mm 0,8 km/h (0 Bft) W 270 7,9 C 0,0 km/h (0 Bft)
17.09.2015 22:15 10,1 C 9,9 C 87 % 1015,4 hPa 0,0 mm 0,8 km/h (0 Bft) O-NO 67 8,0 C 0,0 km/h (0 Bft)
17.09.2015 22:20 10,2 C 10,1 C 83 % 1015,4 hPa 0,0 mm 0,3 km/h (0 Bft) S-SO 157 7,4 C 0,0 km/h (0 Bft)
17.09.2015 22:25 10,2 C 10,0 C 87 % 1015,4 hPa 0,0 mm 0,3 km/h (0 Bft) S-SO 157 8,1 C 0,0 km/h (0 Bft)
17.09.2015 22:28 10,2 C 10,1 C 83 % 1015,4 hPa 0,0 mm 2,1 km/h (1 Bft) W-NW 292 7,4 C 2,8 km/h (1 Bft)
17.09.2015 22:30 10,2 C 10,1 C 83 % 1015,4 hPa 0,0 mm 2,1 km/h (1 Bft) W-NW 292 7,4 C 2,8 km/h (1 Bft)
17.09.2015 22:35 10,2 C 10,1 C 87 % 1015,5 hPa 0,0 mm 2,3 km/h (1 Bft) O-NO 67 8,1 C 0,0 km/h (0 Bft)
17.09.2015 22:40 10,2 C 10,1 C 86 % 1015,5 hPa 0,0 mm 2,6 km/h (1 Bft) SO 135 8,0 C 3,6 km/h (1 Bft)
17.09.2015 22:45 10,2 C 10,1 C 86 % 1015,5 hPa 0,0 mm 2,3 km/h (1 Bft) NO 45 8,0 C 2,6 km/h (1 Bft)
17.09.2015 22:50 10,2 C 10,2 C 86 % 1015,5 hPa 0,0 mm 1,3 km/h (1 Bft) S 180 8,0 C 0,0 km/h (0 Bft)
17.09.2015 22:55 10,1 C 10,1 C 86 % 1015,8 hPa 0,0 mm 0,8 km/h (0 Bft) SO 135 7,9 C 0,0 km/h (0 Bft)
17.09.2015 23:00 10,1 C 10,1 C 86 % 1015,8 hPa 0,0 mm 0,8 km/h (0 Bft) NW 315 7,9 C 2,8 km/h (1 Bft)
17.09.2015 23:05 10,1 C 10,1 C 86 % 1015,8 hPa 0,0 mm 0,8 km/h (0 Bft) S 180 7,9 C 0,0 km/h (0 Bft)
17.09.2015 23:10 10,1 C 10,0 C 86 % 1015,8 hPa 0,0 mm 0,3 km/h (0 Bft) NW 315 7,9 C 0,0 km/h (0 Bft)
17.09.2015 23:15 10,1 C 10,0 C 86 % 1015,8 hPa 0,0 mm 0,0 km/h (0 Bft) N-NO 22 7,9 C 0,0 km/h (0 Bft)
17.09.2015 23:20 10,0 C 10,0 C 86 % 1015,8 hPa 0,0 mm 0,0 km/h (0 Bft) O 90 7,8 C 0,0 km/h (0 Bft)
17.09.2015 23:25 10,0 C 9,9 C 86 % 1015,8 hPa 0,0 mm 0,0 km/h (0 Bft) O-NO 67 7,8 C 0,0 km/h (0 Bft)
17.09.2015 23:30 9,9 C 9,8 C 86 % 1015,8 hPa 0,0 mm 0,0 km/h (0 Bft) O-NO 67 7,7 C 0,0 km/h (0 Bft)
17.09.2015 23:35 9,9 C 9,8 C 86 % 1015,8 hPa 0,0 mm 0,0 km/h (0 Bft) O-NO 67 7,7 C 0,0 km/h (0 Bft)
17.09.2015 23:40 9,9 C 9,8 C 86 % 1015,8 hPa 0,0 mm 0,0 km/h (0 Bft) O-SO 112 7,7 C 0,0 km/h (0 Bft)
17.09.2015 23:45 9,9 C 9,9 C 83 % 1015,8 hPa 0,0 mm 0,0 km/h (0 Bft) W 270 7,2 C 2,8 km/h (1 Bft)
17.09.2015 23:50 10,1 C 10,0 C 86 % 1015,8 hPa 0,0 mm 1,0 km/h (0 Bft) S 180 7,9 C 0,0 km/h (0 Bft)
17.09.2015 23:55 10,1 C 10,0 C 86 % 1015,9 hPa 0,0 mm 1,0 km/h (0 Bft) W-SW 247 7,9 C 0,0 km/h (0 Bft)
_ Min-Zeit 20:25 20:25 12:00 09:10 - 23:45 - - 20:35 23:55
Minimum _ 8,8 C 8,6 C 41 % 1004,2 hPa - 0,0 km/h (0 Bft) - - 6,2 C 0,0 km/h (0 Bft)
_ Max-Zeit 12:00 12:00 21:35 23:55 18:30 13:35 - - 12:35 13:30
Maximum _ 27,6 C 32,7 C 88 % 1015,9 hPa 0,7 mm 20,5 km/h
NW (4 Bft)
- - 15,0 C 48,9 km/h
W-SW (6 Bft)
Durchschnitt _ 15,7 C 16,9 C 68 % 1008,4 hPa #2,1 mm 4,3 km/h (1 Bft) W - 9,3 C 6,1 km/h (2 Bft)